Location: Unspecified
(0.0000°N, 0.0000°E)
Time: 18:33:40
(UTC+00:00)

Vanguard 1 - Pass Details

Date: 23 April 2026
Orbit: 654 x 3817 km, 34.2° (Epoch: 18 May)

Event Time Altitude Azimuth Distance (km) Brightness Sun altitude
Rises 22:14:16 0° 286° (WNW) 6,862 14.8 -61.2°
Reaches altitude 10° 22:20:24 10° 300° (WNW) 6,281 14.4 -62.6°
Maximum altitude 22:35:39 23° 346° (NNW) 5,806 14.0 -65.9°
Drops below altitude 10° 22:52:04 10° 32° (NNE) 6,688 14.2 -69.2°
Sets 22:59:07 0° 46° (NE) 7,373 14.5 -70.5°
